Location: Atlanta
(33.7490°N, 84.3880°W)
Time: 11:55:49
(UTC-04:00)

Daily predictions for brighter satellites

Satellite Brightness Start Highest point End
(mag) Time Altitude Azimuth Time Altitude Azimuth Time Altitude Azimuth
Cosmos 1340 Rocket 2.8 21:15:12 10° S 21:19:11 69° E 21:23:13 10° NNE
Milstar 3 Cent rocket 3.3 21:14:41 10° W 21:20:15 50° S 21:30:35 10° ESE
NOSS 3-4 (A) 4.0 21:13:25 10° NNW 21:20:37 87° ENE 21:28:16 10° SSE
NOSS 3-4 (C) 4.0 21:13:30 10° NNW 21:20:43 86° ENE 21:28:21 10° SSE
SL-24 DEB 4.4 21:18:30 10° S 21:23:15 85° W 21:28:04 10° N
Resurs 01 Rocket 1.9 21:20:07 10° S 21:24:28 70° WSW 21:28:53 10° NNW
Meteor 2-15 Rocket 4.4 21:18:44 10° S 21:24:45 74° E 21:30:49 10° N
CZ-2D R/B 3.7 21:21:24 10° S 21:25:11 64° W 21:29:00 10° NNW
Resurs 1-3 3.8 21:21:14 10° S 21:25:36 77° WSW 21:30:00 10° NNW
SL-16 R/B 2.5 21:20:03 10° NNW 21:25:37 55° ENE 21:31:08 10° SE
Cosmos 1939 Rocket 3.5 21:23:06 10° SE 21:26:49 38° ENE 21:30:35 10° N
Cosmos 1908 4.5 21:26:22 10° NNE 21:29:33 24° ENE 21:32:42 10° SE
Meteor 1-24 Rocket 4.4 21:27:28 10° SSW 21:33:18 61° W 21:38:59 10° N
CZ-3B R/B 3.0 21:31:31 10° SSW 21:33:47 63° SE 21:39:23 10° NE
Cosmos 1741 Rocket 4.2 21:28:37 10° SSW 21:33:56 83° WNW 21:39:15 10° NNE
Cosmos 2219 Rocket 4.3 21:30:04 10° NW 21:34:29 24° W 21:38:53 10° SSW
Spot 2 Rocket 3.9 21:30:05 10° S 21:35:05 66° WSW 21:40:08 10° NNW
Cosmos 1842 Rocket 4.0 21:32:05 10° NNW 21:36:24 65° W 21:40:41 10° S
USA 186 1.9 21:35:07 10° S 21:37:20 45° W 21:39:29 10° NNW
H-2A R/B 4.2 21:38:58 10° ENE 21:40:05 11° ENE 21:41:12 10° NE
Cosmos 1076 Rocket 3.8 21:36:22 10° SSE 21:40:34 49° E 21:44:47 10° NNE
Cosmos 2100 Rocket 4.5 21:35:05 10° N 21:41:06 44° E 21:47:08 10° SSE
SL-19 R/B 4.3 21:35:36 10° SSE 21:41:18 78° ENE 21:46:51 10° NNW
GPS 2-05 Rocket1 2.4 21:38:25 10° WSW 21:41:29 69° SSE 21:44:34 10° E
Cosmos 2173 Rocket 4.4 21:41:46 10° N 21:47:40 45° E 21:53:12 12° SSE
Lacrosse 5 3.2 21:43:29 10° NNW 21:47:49 28° NE 21:51:53 11° E
Cosmos 1818 3.6 21:43:25 10° NNW 21:48:53 79° ENE 21:53:39 13° SSE
Atlas Centaur 2 2.3 21:48:48 10° WSW 21:52:10 28° SSW 21:54:14 17° SSE
Cosmos 1408 Rocket 4.0 21:49:12 10° SSE 21:53:12 40° E 21:57:16 10° NNE
Cosmos 2061 Rocket 4.4 21:48:18 10° N 21:54:28 48° E 21:59:50 14° SSE
YAOGAN 6 2.8 21:52:07 15° SSE 21:55:00 54° ENE 21:58:37 10° N
Cosmos 2227 4.2 21:53:43 10° SSW 21:59:27 84° ESE 22:05:11 10° NNE
Envisat 3.4 21:54:52 10° S 21:59:53 64° W 22:04:56 10° NNW
Cosmos 2221 2.5 21:56:44 10° N 22:01:09 88° W 22:05:26 10° S
Meteor 1-29 3.4 22:04:32 10° N 22:07:56 62° WNW 22:11:22 10° SSW
Cosmos 1726 3.2 22:06:33 10° NNE 22:09:45 28° E 22:10:47 24° ESE
Cosmos 2263 Rocket 2.7 22:11:05 16° SSE 22:14:48 35° ESE 22:19:49 10° NE
Cosmos 1486 Rocket 4.3 22:10:45 13° S 22:15:10 45° ESE 22:20:12 10° NNE
Tiangong 1 3.6 22:14:23 10° NNW 22:16:00 14° N 22:17:37 10° NE
Cosmos 332 Rocket 4.5 22:12:47 10° N 22:17:24 40° ENE 22:19:41 25° ESE
Cosmos 1802 Rocket 3.9 22:12:01 10° N 22:18:09 70° E 22:22:46 18° SSE
Abrixas 3.6 22:17:00 10° WSW 22:19:34 41° NW 22:22:10 10° NE
Cosmos 2208 Rocket 4.4 22:15:52 10° NNW 22:21:11 66° WSW 22:25:25 16° S
Helios 1B rocket 4.0 22:17:27 10° N 22:21:16 36° WNW 22:25:03 10° SW
Cosmos 1300 3.4 22:22:03 10° NNE 22:25:35 35° E 22:26:18 32° ESE
Cosmos 1766 Rocket 4.1 22:28:16 10° SSW 22:32:31 58° W 22:36:48 10° N
SPOT 1/Viking Rocket 4.3 22:33:04 28° ESE 22:34:51 36° ENE 22:39:32 10° N
USA 234 3.2 22:30:22 10° NE 22:36:53 66° SE 22:43:21 10° SSW
SL-14 R/B 3.1 22:36:05 34° S 22:37:42 77° E 22:41:38 10° N
Cosmos 1328 Rocket 3.7 22:34:48 10° N 22:39:02 53° E 22:40:04 42° SE
Cosmos 1151 Rocket 4.1 22:35:22 10° NNE 22:39:09 28° ENE 22:39:31 27° E
Cosmos 2016 Rocket 3.9 22:32:56 10° N 22:39:11 87° E 22:43:03 24° S
MetOp-A 4.1 22:39:46 29° SSE 22:42:38 90° E 22:48:01 10° NNW
Cosmos 1242 Rocket 4.3 22:40:45 10° NNW 22:44:01 30° W 22:46:19 16° SW
CZ-4C R/B 3.7 22:46:16 17° E 22:46:16 17° E 22:48:14 10° ENE
ERS-1 Rocket 3.2 22:41:51 25° S 22:44:47 66° WSW 22:49:49 10° NNW
Cosmos 1515 Rocket 3.8 22:43:15 10° N 22:47:26 46° E 22:47:59 44° ESE
Delta 2 Rocket 4.2 22:41:49 10° W 22:47:30 81° N 22:52:25 15° ENE
H-2A R/B 4.1 22:47:34 14° ENE 22:47:39 14° ENE 22:49:50 10° NE
Cosmos 1743 Rocket 3.4 22:46:31 36° S 22:48:15 87° E 22:52:35 10° N
EO 1 Delta rocket 4.0 22:47:12 41° SE 22:48:28 55° ENE 22:52:59 10° N
Cosmos 468 Rocket 4.0 22:43:24 10° NNW 22:48:32 78° WSW 22:50:42 35° S
ARGOS 3.1 22:46:39 35° SSE 22:49:02 79° ENE 22:54:28 10° N
USA 245 3.0 22:48:40 63° ESE 22:49:02 70° ENE 22:53:11 10° N
Cosmos 2058 3.3 22:50:47 45° E 22:50:49 45° E 22:54:51 10° NNE
Cosmos 1328 4.0 22:49:32 33° SSW 22:51:13 72° W 22:55:16 10° N
Cosmos 1603 3.7 22:47:39 10° NNW 22:53:17 76° WSW 22:55:39 36° S
RESURS DK-1 2.5 22:49:32 10° NNW 22:53:40 66° WSW 22:54:38 48° S
Sakura Rocket 4.4 22:45:26 10° W 22:53:48 55° S 22:56:13 37° SE
YAOGAN 11 4.1 22:55:56 50° SSE 22:57:08 89° ENE 23:01:42 10° NNW
Cosmos 1455 4.3 22:55:36 10° NNE 22:57:20 17° ENE 22:57:20 17° ENE
Cosmos 1503 Rocket 3.9 23:00:28 48° SSE 23:01:40 62° ESE 23:06:47 10° NNE
Cosmos 2233 Rocket 4.1 22:56:23 10° N 23:02:26 55° E 23:04:08 42° SE
Meteor 2-2 Rocket 4.5 22:59:37 10° NNW 23:05:25 71° W 23:08:08 33° S
Nimbus 7 Rocket 4.4 22:59:25 10° NNE 23:05:28 89° WNW 23:08:52 27° SSW
Cosmos 2228 Rocket 3.2 23:01:41 10° N 23:06:16 77° W 23:07:15 54° SSW
Cosmos 1943 3.2 23:00:38 10° NNW 23:06:16 66° ENE 23:07:41 49° SE
Cosmos 371 Rocket 3.3 23:01:30 10° NNW 23:06:19 77° WSW 23:07:23 53° S
H-2A R/B 2.1 23:17:24 55° S 23:18:39 84° WSW 23:24:06 10° NNW
ERBS 3.4 23:16:03 10° NW 23:18:29 43° NW 23:18:29 43° NW
Cosmos 1447 Rocket 4.5 23:18:48 38° S 23:21:27 85° W 23:27:50 10° N
SPOT 5 3.6 23:24:13 38° SW 23:25:28 47° W 23:30:21 10° NNW
SL-08 RB Rocket 4.3 23:25:51 43° SW 23:26:37 47° W 23:31:03 10° NNW
H-2A ROCKET BODY 2.8 23:23:42 10° WSW 23:27:41 55° SSE 23:44:15 10° E
Cosmos 2151 3.7 23:27:50 44° WSW 23:28:31 49° W 23:32:41 10° N
Lacrosse 5 2.5 23:26:08 10° NW 23:30:51 41° WSW 23:31:05 41° SW
Abrixas rocket 4.1 23:28:11 10° NW 23:29:56 29° NW 23:29:56 29° NW
Landsat 7 3.7 23:35:07 80° WSW 23:35:12 80° W 23:39:58 10° NNW
Cosmos 1626 3.3 23:38:04 42° NW 23:38:04 42° NW 23:41:03 10° N
Cosmos 1703 4.1 23:39:14 48° WNW 23:39:14 48° WNW 23:42:46 10° N
SL-19 R/B 4.1 23:38:43 10° NNE 23:44:11 86° ESE 23:44:40 75° S
Cosmos 2278 Rocket 4.4 23:51:08 12° ENE 23:51:08 12° ENE 23:51:44 10° ENE
Terra 1.9 23:50:32 73° NW 23:50:32 73° NW 23:54:54 10° NNW
deb Chang Zheng 4 4.2 23:45:55 10° NNE 23:49:17 53° NNE 23:49:17 53° NNE
Tiangong 1 4.4 23:49:26 10° NW 23:49:35 11° NW 23:49:35 11° NW
